Powrót do katalogu

HJS-9A

AktywnyNaukaVLEO
NORAD 68831·PAYLOAD·🇨🇳 China

Wystrzelony Apr 24, 2026 z Xichang Satellite Launch Center

Loading…

Następne Przeloty (najbliższe 24 godziny)

TLE

ŚwieżeSource: Space-Track

Epoka: Sep 14, 2026, 11:32 UTC

1 68831U 26091A   26257.48104516  .00002662  00000-0  13936-3 0  9996
2 68831  55.0049 351.5303 0007028 274.7308  85.2909 15.19308262 21776

Śledź HJS-9A w czasie rzeczywistym z AllMySat

Download on the App Store